DW8947 Weather Reports


time (UTC)temp
F
wind
direction
speed
knots
gust
knots
rain 1hr
in
rain 24hr
in
rain mn
in
humidity
%
barometer
mb
20260906091204 55 301 0.0 1.7 0.00 0.00 0.00 88 1014.5
20260906090704 55 301 0.0 0.9 0.00 0.00 0.00 88 1014.5
20260906085704 55 301 0.0 1.7 0.00 0.00 0.00 88 1014.5
20260906084203 55 7 0.0 1.7 0.00 0.00 0.00 88 1014.6
20260906083704 55 353 0.0 1.7 0.00 0.00 0.00 88 1014.6
20260906082704 55 353 0.0 1.7 0.00 0.00 0.00 88 1014.7
20260906081204 56 352 0.0 1.7 0.00 0.00 0.00 88 1014.7
20260906080204 56 356 0.0 1.7 0.00 0.00 0.00 88 1014.7
20260906075205 56 158 0.0 1.7 0.00 0.00 0.00 88 1014.7
20260906074704 56 158 0.0 1.7 0.00 0.00 0.00 87 1014.7
20260906073704 57 158 0.0 1.7 0.00 0.00 0.00 87 1014.8
20260906072704 57 63 0.0 1.7 0.00 0.00 0.00 86 1014.7
20260906072204 57 63 0.0 1.7 0.00 0.00 0.00 85 1014.8
20260906071704 57 63 0.0 1.7 0.00 0.00 0.00 84 1014.8
20260906071204 57 25 0.0 1.7 0.00 0.00 0.00 84 1014.8
20260906070204 57 25 0.0 1.7 0.00 0.00 0.00 84 1014.7
20260906065704 57 25 0.0 1.7 0.00 0.00 0.00 83 1014.8
20260906064704 57 25 0.0 1.7 0.00 0.00 0.00 83 1014.9
20260906062204 58 50 0.0 1.7 0.00 0.00 0.00 82 1014.9
20260906061704 58 50 0.0 1.7 0.00 0.00 0.00 82 1014.9
20260906055704 58 25 0.0 1.7 0.00 0.00 0.00 81 1015.1
20260906054704 59 25 0.0 1.7 0.00 0.00 0.00 80 1015.1
20260906054204 59 25 0.0 1.7 0.00 0.00 0.00 80 1015.2
20260906052704 59 25 0.0 1.7 0.00 0.00 0.00 79 1015.1
20260906052204 60 25 0.0 1.7 0.00 0.00 0.00 79 1015.1
20260906050703 60 25 0.0 1.7 0.00 0.00 0.00 78 1015.1
20260906045704 60 25 0.0 1.7 0.00 0.00 0.00 77 1015.1
20260906044204 61 48 0.0 1.7 0.00 0.00 0.00 76 1015.2
20260906041704 62 156 0.0 1.7 0.00 0.00 0.00 74 1015.3
20260906041204 62 356 0.0 1.7 0.00 0.00 0.00 75 1015.4
20260906040204 62 354 0.0 1.7 0.00 0.00 0.00 74 1015.5
20260906035704 62 43 0.0 1.7 0.00 0.00 0.00 74 1015.5
20260906035204 62 141 0.0 1.7 0.00 0.00 0.00 74 1015.5
20260906034704 62 82 0.0 1.7 0.00 0.00 0.00 74 1015.6
20260906033704 62 19 0.0 1.7 0.00 0.00 0.00 74 1015.5
20260906033204 63 19 0.0 1.7 0.00 0.00 0.00 72 1015.4
20260906032704 63 35 0.0 1.7 0.00 0.00 0.00 72 1015.4
20260906032204 63 48 0.0 1.7 0.00 0.00 0.00 73 1015.4
20260906031203 63 48 0.0 1.7 0.00 0.00 0.00 72 1015.3
20260906030704 64 48 0.0 1.7 0.00 0.00 0.00 71 1015.3
20260906024203 64 48 0.0 0.0 0.00 0.00 0.00 66 1015.1
20260906023704 64 48 0.0 1.7 0.00 0.00 0.00 66 1015.1
20260906021204 64 48 0.0 0.0 0.00 0.00 0.00 64 1015.0
20260906020204 64 48 0.0 0.0 0.00 0.00 0.00 62 1014.9
20260906015704 65 48 0.0 0.0 0.00 0.00 0.00 61 1015.0
20260906015204 65 48 0.0 0.0 0.00 0.00 0.00 62 1015.0
20260906012704 66 48 0.0 0.0 0.00 0.00 0.00 63 1015.0
20260906012204 66 48 0.0 0.0 0.00 0.00 0.00 62 1015.0
20260906011703 66 48 0.0 0.0 0.00 0.00 0.00 62 1014.9
20260906011204 66 48 0.0 0.0 0.00 0.00 0.00 63 1014.8
20260906010204 67 48 0.0 1.7 0.00 0.00 0.00 64 1014.8
20260906005204 66 48 0.0 0.9 0.00 0.00 0.00 65 1014.9
20260906004703 66 48 0.0 1.7 0.00 0.00 0.00 63 1014.8
20260906002703 67 17 0.0 0.9 0.00 0.00 0.00 62 1014.6
20260906002203 67 17 0.0 1.7 0.00 0.00 0.00 63 1014.6
20260906001705 68 17 0.0 1.7 0.00 0.00 0.00 61 1014.6
20260905233705 67 333 0.0 1.7 0.00 0.00 0.00 59 1014.7
20260905233205 67 63 0.0 1.7 0.00 0.00 0.00 60 1014.8
20260905231705 67 333 0.0 0.0 0.00 0.00 0.00 63 1014.9
20260905230705 67 3 0.0 1.7 0.00 0.00 0.00 64 1015.0
20260905225705 67 330 0.0 1.7 0.00 0.00 0.00 60 1015.0
20260905225205 67 119 0.0 0.9 0.00 0.00 0.00 65 1015.0
20260905224205 67 153 0.9 1.7 0.00 0.00 0.00 61 1015.0
20260905223205 67 177 0.0 1.7 0.00 0.00 0.00 59 1015.1
20260905222705 67 210 0.0 1.7 0.00 0.00 0.00 58 1015.1
20260905222205 67 227 0.0 1.7 0.00 0.00 0.00 61 1015.1
20260905221705 67 209 0.0 1.7 0.00 0.00 0.00 56 1015.1
20260905221205 67 173 0.9 1.7 0.00 0.00 0.00 59 1015.2
20260905220205 67 227 0.0 0.9 0.00 0.00 0.00 57 1015.3
20260905214205 67 209 0.9 0.9 0.00 0.00 0.00 61 1015.3
20260905213205 66 202 0.9 1.7 0.00 0.00 0.00 61 1015.4
20260905212705 67 272 0.9 1.7 0.00 0.00 0.00 63 1015.5
20260905210705 66 81 0.0 1.7 0.00 0.00 0.00 67 1015.6
20260905210205 67 140 0.9 1.7 0.00 0.00 0.00 68 1015.6
20260905205205 67 153 0.0 1.7 0.00 0.00 0.00 65 1015.7
20260905204705 68 155 0.0 1.7 0.00 0.00 0.00 66 1015.6
20260905202705 69 235 0.9 1.7 0.00 0.00 0.00 61 1015.8
20260905202205 70 67 0.9 1.7 0.00 0.00 0.00 64 1015.8
20260905201705 70 12 0.0 1.7 0.00 0.00 0.00 62 1015.8
20260905195705 69 58 1.7 2.6 0.00 0.00 0.00 63 1016.0
20260905195205 69 81 0.9 2.6 0.00 0.00 0.00 65 1016.0
20260905194705 68 320 0.0 1.7 0.00 0.00 0.00 67 1016.0
20260905194205 68 196 0.0 1.7 0.00 0.00 0.00 67 1016.1
20260905192704 67 132 0.9 0.9 0.00 0.00 0.00 70 1016.2
20260905192205 67 127 0.0 1.7 0.00 0.00 0.00 71 1016.1
20260905191205 65 14 0.0 1.7 0.00 0.00 0.00 77 1016.2
20260905184705 62 54 0.0 1.7 0.00 0.00 0.00 81 1016.4
20260905182205 61 169 0.0 1.7 0.00 0.00 0.00 84 1016.6
20260905181705 61 169 0.0 1.7 0.00 0.00 0.00 84 1016.6
20260905180705 60 117 0.0 1.7 0.00 0.00 0.00 85 1016.7
20260905174704 58 133 0.0 1.7 0.00 0.00 0.00 88 1016.9
20260905174204 58 133 0.0 1.7 0.00 0.00 0.00 88 1016.9
20260905172705 58 144 0.0 1.7 0.00 0.00 0.00 89 1016.8
20260905172205 58 152 0.0 0.0 0.00 0.00 0.00 90 1016.8
20260905165705 58 152 0.0 1.7 0.00 0.00 0.00 90 1016.7
20260905165205 58 152 0.0 1.7 0.00 0.00 0.00 91 1016.7
20260905164705 58 152 0.0 0.0 0.00 0.00 0.00 91 1016.6
20260905164205 58 152 0.0 1.7 0.00 0.00 0.00 91 1016.6
20260905163705 58 152 0.0 0.0 0.00 0.00 0.00 91 1016.6
20260905162705 57 152 0.0 1.7 0.00 0.00 0.00 92 1016.6
20260905161204 56 152 0.0 1.7 0.00 0.00 0.00 95 1016.5
20260905160705 56 152 0.0 1.7 0.00 0.00 0.00 95 1016.5
20260905160205 55 152 0.0 0.0 0.00 0.00 0.00 95 1016.4
20260905155705 55 152 0.0 1.7 0.00 0.00 0.00 95 1016.4
20260905155204 55 152 0.0 1.7 0.00 0.00 0.00 95 1016.4
20260905154705 55 152 0.0 0.0 0.00 0.00 0.00 95 1016.4
20260905154205 55 152 0.0 1.7 0.00 0.00 0.00 95 1016.4
20260905153705 54 152 0.0 0.0 0.00 0.00 0.00 95 1016.4
20260905152205 54 152 0.0 0.9 0.00 0.00 0.00 95 1016.3
20260905150205 54 152 0.0 0.0 0.00 0.00 0.00 94 1016.1
20260905145705 54 152 0.0 1.7 0.00 0.00 0.00 95 1016.1
20260905142705 53 73 0.0 1.7 0.00 0.00 0.00 94 1016.0
20260905141205 53 73 0.0 1.7 0.00 0.00 0.00 94 1015.9
20260905134705 53 73 0.0 0.0 0.00 0.00 0.00 93 1015.8
20260905133704 53 73 0.0 0.0 0.00 0.00 0.00 93 1015.8
20260905132705 53 73 0.0 0.0 0.00 0.00 0.00 94 1015.8
20260905130205 53 73 0.0 0.0 0.00 0.00 0.00 93 1015.7
20260905124704 53 73 0.0 0.0 0.00 0.00 0.00 93 1015.5
20260905123705 53 73 0.0 0.0 0.00 0.00 0.00 93 1015.4
20260905122705 53 73 0.0 0.0 0.00 0.00 0.00 93 1015.4
20260905121705 53 73 0.0 1.7 0.00 0.00 0.00 93 1015.4
20260905115704 53 73 0.0 0.0 0.00 0.00 0.00 92 1015.4
20260905115204 53 73 0.0 0.0 0.00 0.00 0.00 92 1015.4
20260905114705 54 73 0.0 0.0 0.00 0.00 0.00 92 1015.3
20260905112704 54 73 0.0 0.0 0.00 0.00 0.00 92 1015.1
20260905111705 54 73 0.0 1.7 0.00 0.00 0.00 92 1015.2
20260905110704 54 73 0.0 0.0 0.00 0.00 0.00 91 1015.2
20260905110204 54 73 0.0 0.0 0.00 0.00 0.00 91 1015.2
20260905105705 54 73 0.0 1.7 0.00 0.00 0.00 91 1015.2
20260905105204 54 73 0.0 1.7 0.00 0.00 0.00 91 1015.2
20260905104705 54 73 0.0 1.7 0.00 0.00 0.00 91 1015.3
20260905104205 54 73 0.0 1.7 0.00 0.00 0.00 91 1015.2
20260905103705 54 73 0.0 0.0 0.00 0.00 0.00 91 1015.3
20260905102704 54 73 0.0 1.7 0.00 0.00 0.00 92 1015.2
20260905102205 54 73 0.0 1.7 0.00 0.00 0.00 92 1015.2
20260905101204 54 73 0.0 1.7 0.00 0.00 0.00 92 1015.1
20260905100705 54 73 0.0 1.7 0.00 0.00 0.00 92 1015.1
20260905095705 54 73 0.0 0.0 0.00 0.00 0.00 91 1015.1
20260905094706 54 73 0.0 1.7 0.00 0.00 0.00 91 1015.1
20260905094204 54 73 0.0 0.0 0.00 0.00 0.00 91 1015.1
20260905093205 54 73 0.0 0.0 0.00 0.00 0.00 91 1015.0
20260905091705 55 73 0.0 0.0 0.00 0.00 0.00 91 1014.9